Regional Weather Roundup
Issued by NWS

Home | Current Version | Previous Version | Text Only | Print | Product List | Glossary On
Versions: 1 2 3 4 5 6 7 8 9 10 11 12 13 14 15 16 17 18 19 20 21 22 23 24 25 26 27 28 29 30 31 32 33 34 35 36 37 38 39 40 41 42 43 44 45 46 47 48 49 50
000
ASUS43 KMKX 230100
RWRWI

WISCONSIN REGIONAL WEATHER ROUNDUP
NATIONAL WEATHER SERVICE MILWAUKEE/SULLIVAN WI
800 PM CDT FRI AUG 22 2014

NOTE: "FAIR" INDICATES FEW OR NO CLOUDS BELOW 12,000 FEET WITH NO
SIGNIFICANT WEATHER AND/OR OBSTRUCTIONS TO VISIBILITY.

WIZ001-002-006>008-014>016-023>028-230200-
NORTHWEST WISCONSIN

CITY           SKY/WX    TMP DP  RH WIND       PRES   REMARKS
SUPERIOR ARPT  CLOUDY    61  60  95 NE5       30.04S
ASHLAND        CLOUDY    65  61  87 NE3       30.04R
HAYWARD        CLOUDY    68  66  93 NE8       30.02S
SIREN          CLOUDY    70  66  88 N5        30.02R
RICE LAKE      CLOUDY    72  68  88 N6        30.01S
LADYSMITH      CLOUDY    74  70  86 N7        30.02R
EAU CLAIRE     NOT AVBL
MENOMONIE      PTCLDY    75  69  80 N6        29.98S
NEW RICHMOND   CLOUDY    72  69  90 N3        30.00S
OSCEOLA        CLOUDY    73  71  95 CALM      30.02S
$$

WIZ003>005-009-010-017-018-230200-
NORTH CENTRAL WISCONSIN

CITY           SKY/WX    TMP DP  RH WIND       PRES   REMARKS
WOODRUFF       MOCLDY    72  68  87 NW3       30.02R
RHINELANDER    CLOUDY    72  70  93 CALM      30.02S
EAGLE RIVER    CLOUDY    70  70  99 CALM      30.01S FOG
LAND O LAKES   CLOUDY    69  69  98 CALM      30.03R FOG
PHILLIPS       CLOUDY    70  68  95 N5        30.01S
TOMAHAWK       CLOUDY    72  69  91 CALM      30.01S FOG
MEDFORD        MOCLDY    73  72  95 CALM      30.00R FOG
MERRILL        CLOUDY    72  72  99 E3        30.00R FOG
$$

WIZ029-030-035-036-043>047-230200-
CENTRAL WISCONSIN

CITY           SKY/WX    TMP DP  RH WIND       PRES   REMARKS
WAUSAU         MOCLDY    76  72  87 NE7       29.97R
MOSINEE        NOT AVBL
MARSHFIELD     PTCLDY    78  71  79 CALM      29.97R HX  80
STEVENS POINT  PTCLDY    79  73  84 CALM      29.97R HX  82
WAUPACA        PTCLDY    77  74  91 CALM      29.96R
WAUTOMA        NOT AVBL
WISC RAPIDS    PTCLDY    80  74  81 CALM      29.97R HX  85
CAMP DOUGLAS   NOT AVBL
$$

WIZ011>013-019>022-031-037>040-048>050-230200-
NORTHEAST WISCONSIN

CITY           SKY/WX    TMP DP  RH WIND       PRES   REMARKS
ANTIGO         CLOUDY    72  70  96 E6        30.02R FOG
STURGEON BAY   CLOUDY    70  66  88 E6        30.00S
GREEN BAY      MOCLDY    74  70  87 E7        29.97R
MANITOWOC      NOT AVBL
APPLETON       MOCLDY    75  68  78 E9        29.97R
CLINTONVILLE   LGT RAIN  77  72  83 E6        29.97R
OSHKOSH        MOCLDY    77  72  84 E8        29.96R
$$

WIZ032>034-041-042-053>061-230200-
SOUTHWEST WISCONSIN

CITY           SKY/WX    TMP DP  RH WIND       PRES   REMARKS
LA CROSSE      PTCLDY    81  73  76 N7        29.93R HX  86
SPARTA         CLEAR     80  73  79 CALM      29.95R HX  83
VIROQUA        FAIR      79  77  92 CALM      29.96S HX  84
BOSCOBEL       PTCLDY    82  76  81 CALM      29.93R HX  89
PRAIRIE DU CHI PTCLDY    84  74  72 CALM      29.92R HX  90
PLATTEVILLE    FAIR      82  78  87 CALM      29.95R HX  91
$$

WIZ056-057-062-063-064-067-068-230200-
SOUTH CENTRAL WISCONSIN

CITY           SKY/WX    TMP DP  RH WIND       PRES   REMARKS
BARABOO/DELLS  CLEAR     83  71  68 CALM      29.94S HX  87
LONE ROCK      NOT AVBL
WATERTOWN      CLEAR     78  75  90 E8        29.94S HX  81
MADISON        PTCLDY    80  74  81 CALM      29.93S HX  85
MIDDLETON      FAIR      83  76  79 CALM      29.94R HX  92
MONROE         MOCLDY    81  77  89 S5        29.95R HX  88
JANESVILLE     CLEAR     82  75  78 S5        29.93  HX  89
$$

WIZ051-052-058>065-066-070>072-230200-
SOUTHEAST WISCONSIN

CITY           SKY/WX    TMP DP  RH WIND       PRES   REMARKS
MILWAUKEE      FOG       70  69  97 E6        29.97S VSB 3/4
WAUKESHA       NOT AVBL
MILWAUKEE/TIMM CLOUDY    73  66  78 E5        29.98S FOG
RACINE         CLOUDY    72  70  93 E5        29.98F FOG
BURLINGTON     MOCLDY    74  71  91 E8        29.96S
KENOSHA        MOCLDY    73  71  93 E7        29.97S FOG
FOND DU LAC    PTCLDY    76  70  82 SE8       29.96R
SHEBOYGAN      CLOUDY    69  67  93 NE5       29.99R
WEST BEND      PTCLDY    72  68  88 E6        29.98R FOG
JUNEAU         CLEAR     78  47  33 E10       29.96S
$$

LSZ147-162-230200-
LAKE SUPERIOR

STATION/POSITION TIME  TEMP    WIND        PRES    WAVE
                       AIR SEA DIR/SP/G            HT/PER
                 (UTC) (F)     (DEG/KT/KT) (MB)    (FT/S)
W MID LAKE BUOY  2350   58 59   30/ 10/ 12 1016.2R   2/ 4
DEVILS ISLAND    0000   61      40/  6/  7 1017.0R
PORT WING        0000   60      40/  7/  8 1017.3R
SAXON HARBOR     0000   62        CALM     1016.9R
$$

LMZ867-665-643>646-230200-
LAKE MICHIGAN

STATION/POSITION TIME  TEMP    WIND        PRES    WAVE
                       AIR SEA DIR/SP/G            HT/PER
                 (UTC) (F)     (DEG/KT/KT) (MB)    (FT/S)
N MID LAKE BUOY  2350   68 66   80/  6/  8 1015.2F   0
NORTHPORT PIER   0000   67     100/  4/  6 1015.9R
SISTER BAY       2341   69     130/  9/ 12   N/A
KEWAUNEE LAKESHO 0000   67      40/  4/  6 1014.5R
SHEBOYGAN LAKESH 0000   68 63   80/  5/  6 1015.2R
ATWATER BUOY     0000   69      80/  4/  6 1015.8R
MILWAUKEE LAKESH 0000   70      90/  4/  5   N/A
S MID LAKE BUOY  2350   72 71  130/  2/  4 1014.5R   0
KENOSHA   LAKESH 0000   74      90/  4/  5 1013.9R
$$

TC  - TEMPERATURE IN CELSIUS
VSB - VISIBILITY IN STATUTE MILES
WCI - WIND CHILL INDEX
HX  - HEAT INDEX



USA.gov is the U.S. government's official web portal to all federal, state and local government web resources and services.